FW2748 Weather Reports


time (UTC)temp
C
wind
direction
speed
KPH
gust
KPH
rain 1hr
cm
rain 24hr
cm
rain mn
cm
humidity
%
barometer
mb
20260504081805 9 116 3.2 3.2 0.00 0.00 0.00 64 1035.6
20260504081305 9 116 3.2 4.8 0.00 0.00 0.00 64 1035.6
20260504080805 9 123 3.2 4.8 0.00 0.00 0.00 64 1035.6
20260504080304 9 146 3.2 4.8 0.00 0.00 0.00 64 1035.6
20260504070305 10 138 3.2 3.2 0.00 0.00 0.00 63 1035.6
20260504050304 13 155 1.6 3.2 0.00 0.00 0.00 49 1035.6
20260504045804 13 155 1.6 3.2 0.00 0.00 0.00 49 1035.6
20260504044804 15 155 1.6 4.8 0.00 0.00 0.00 44 1035.6
20260504044304 15 155 1.6 8.0 0.00 0.00 0.00 43 1035.6
20260504043804 15 155 8.0 8.0 0.00 0.00 0.00 42 1035.6
20260504043304 16 178 4.8 8.0 0.00 0.00 0.00 42 1035.6
20260504042805 16 179 4.8 4.8 0.00 0.00 0.00 41 1035.6
20260504042304 16 179 3.2 8.0 0.00 0.00 0.00 41 1035.6
20260504041305 18 274 6.4 9.7 0.00 0.00 0.00 35 1035.6
20260504040804 18 339 4.8 8.0 0.00 0.00 0.00 35 1035.6
20260504040304 18 340 3.2 3.2 0.00 0.00 0.00 35 1035.6
20260504035804 18 340 3.2 4.8 0.00 0.00 0.00 35 1035.6
20260504035305 18 339 1.6 3.2 0.00 0.00 0.00 34 1035.6
20260504034804 19 339 0.0 0.0 0.00 0.00 0.00 33 1035.6
20260504034305 20 339 0.0 1.6 0.00 0.00 0.00 30 1035.6
20260504033804 20 339 1.6 4.8 0.00 0.00 0.00 30 1035.6
20260504033305 20 340 3.2 4.8 0.00 0.00 0.00 30 1035.6
20260504032805 20 340 4.8 8.0 0.00 0.00 0.00 29 1035.6
20260504032305 20 340 6.4 12.9 0.00 0.00 0.00 29 1035.6
20260504031304 21 343 8.0 11.3 0.00 0.00 0.00 29 1035.6
20260504030805 21 341 11.3 12.9 0.00 0.00 0.00 29 1035.6
20260504030304 21 342 9.7 11.3 0.00 0.00 0.00 30 1035.6
20260504025806 21 352 9.7 16.1 0.00 0.00 0.00 30 1035.6
20260504025304 21 338 9.7 19.3 0.00 0.00 0.00 30 1035.6
20260504024804 22 331 11.3 11.3 0.00 0.00 0.00 29 1035.6
20260504023804 22 329 12.9 14.5 0.00 0.00 0.00 28 1035.6
20260504023304 22 334 8.0 11.3 0.00 0.00 0.00 28 1035.6
20260504022306 23 328 8.0 12.9 0.00 0.00 0.00 26 1035.6
20260504021804 23 330 12.9 12.9 0.00 0.00 0.00 26 1035.6
20260504021304 23 333 11.3 19.3 0.00 0.00 0.00 25 1035.6
20260504020304 23 0 0.0 0.0 0.00 0.00 0.00 24 1035.6
20260504015804 23 0 0.0 0.0 0.00 0.00 0.00 23 1035.6
20260504014805 24 311 4.8 4.8 0.00 0.00 0.00 21 1035.6
20260504014304 24 311 4.8 11.3 0.00 0.00 0.00 19 1035.6
20260504013804 24 315 6.4 12.9 0.00 0.00 0.00 19 1035.6
20260504012304 25 309 14.5 16.1 0.00 0.00 0.00 20 1035.6
20260504011804 25 279 4.8 19.3 0.00 0.00 0.00 20 1035.6
20260504011304 25 258 6.4 9.7 0.00 0.00 0.00 21 1035.6
20260504010805 25 278 9.7 12.9 0.00 0.00 0.00 20 1035.6
20260504010304 25 247 11.3 19.3 0.00 0.00 0.00 20 1035.6
20260504005804 25 266 9.7 19.3 0.00 0.00 0.00 20 1035.6
20260504005306 25 310 11.3 16.1 0.00 0.00 0.00 20 1035.6
20260504004804 25 300 16.1 20.9 0.00 0.00 0.00 20 1035.6
20260504003804 25 252 16.1 24.1 0.00 0.00 0.00 20 1035.6
20260504003304 25 262 14.5 19.3 0.00 0.00 0.00 19 1035.6
20260504002804 25 293 17.7 19.3 0.00 0.00 0.00 19 1035.6
20260504002304 25 276 17.7 20.9 0.00 0.00 0.00 19 1035.6
20260504001804 25 296 12.9 24.1 0.00 0.00 0.00 19 1035.6
20260504001304 25 0 20.9 22.5 0.00 0.00 0.00 20 1035.6
20260504000804 25 257 4.8 11.3 0.00 0.00 0.00 20 1035.6
20260504000306 25 315 11.3 19.3 0.00 0.00 0.00 20 1035.6
20260503235807 25 323 11.3 19.3 0.00 0.00 0.00 20 1035.6
20260503235307 25 300 17.7 19.3 0.00 0.00 0.00 20 1035.6
20260503234807 25 258 8.0 14.5 0.00 0.00 0.00 20 1035.6
20260503234306 25 269 8.0 20.9 0.00 0.00 0.00 20 1035.6
20260503233306 25 252 12.9 16.1 0.00 0.00 0.00 21 1035.6
20260503231806 25 269 16.1 24.1 0.00 0.00 0.00 20 1035.6
20260503231306 25 267 12.9 25.7 0.00 0.00 0.00 19 1035.6
20260503230806 25 274 17.7 25.7 0.00 0.00 0.00 19 1035.6
20260503230307 25 290 9.7 9.7 0.00 0.00 0.00 19 1035.6
20260503225307 25 271 16.1 19.3 0.00 0.00 0.00 20 1035.6
20260503224807 25 257 8.0 19.3 0.00 0.00 0.00 21 1035.6
20260503224306 25 290 8.0 19.3 0.00 0.00 0.00 22 1035.6
20260503223807 25 249 19.3 25.7 0.00 0.00 0.00 22 1035.6
20260503222306 25 273 8.0 19.3 0.00 0.00 0.00 23 1035.6
20260503221806 25 295 6.4 16.1 0.00 0.00 0.00 23 1035.6
20260503221306 25 296 12.9 19.3 0.00 0.00 0.00 22 1035.6
20260503220306 25 327 9.7 24.1 0.00 0.00 0.00 22 1035.6
20260503215806 25 204 9.7 9.7 0.00 0.00 0.00 24 1035.6
20260503214806 25 276 14.5 16.1 0.00 0.00 0.00 24 1035.6
20260503214306 25 234 12.9 12.9 0.00 0.00 0.00 24 1035.6
20260503213806 24 241 14.5 24.1 0.00 0.00 0.00 25 1035.6
20260503213306 24 253 9.7 14.5 0.00 0.00 0.00 25 1035.6
20260503212306 24 261 19.3 22.5 0.00 0.00 0.00 25 1035.6
20260503211806 24 224 22.5 22.5 0.00 0.00 0.00 25 1035.6
20260503211306 24 238 12.9 22.5 0.00 0.00 0.00 25 1035.6
20260503210807 24 304 8.0 16.1 0.00 0.00 0.00 25 1035.6
20260503210306 24 236 16.1 24.1 0.00 0.00 0.00 27 1035.6
20260503205807 24 240 14.5 14.5 0.00 0.00 0.00 25 1035.6
20260503205307 25 239 14.5 19.3 0.00 0.00 0.00 26 1035.6
20260503204806 24 245 12.9 20.9 0.00 0.00 0.00 26 1035.6
20260503203806 23 296 11.3 20.9 0.00 0.00 0.00 26 1035.6
20260503202806 23 271 8.0 14.5 0.00 0.00 0.00 27 1035.6
20260503202306 23 276 11.3 11.3 0.00 0.00 0.00 28 1035.6
20260503201306 23 217 14.5 19.3 0.00 0.00 0.00 30 1035.6
20260503200306 22 245 19.3 22.5 0.00 0.00 0.00 28 1035.6
20260503195806 22 248 19.3 24.1 0.00 0.00 0.00 27 1035.6
20260503194806 22 265 14.5 25.7 0.00 0.00 0.00 30 1035.6
20260503194306 22 256 12.9 20.9 0.00 0.00 0.00 28 1035.6
20260503193307 22 283 16.1 25.7 0.00 0.00 0.00 28 1035.6
20260503192806 22 241 9.7 9.7 0.00 0.00 0.00 29 1035.6
20260503191806 22 256 24.1 32.2 0.00 0.00 0.00 29 1035.6
20260503191305 22 244 11.3 11.3 0.00 0.00 0.00 29 1035.6
20260503190806 22 355 1.6 9.7 0.00 0.00 0.00 28 1035.6
20260503190306 22 343 17.7 19.3 0.00 0.00 0.00 28 1035.6
20260503185806 22 334 14.5 24.1 0.00 0.00 0.00 29 1035.6
20260503185306 22 343 16.1 24.1 0.00 0.00 0.00 30 1035.6
20260503184306 21 167 3.2 9.7 0.00 0.00 0.00 36 1035.6
20260503183806 21 184 8.0 12.9 0.00 0.00 0.00 37 1035.6
20260503183306 21 200 8.0 12.9 0.00 0.00 0.00 38 1035.6
20260503182806 21 196 4.8 9.7 0.00 0.00 0.00 38 1035.6
20260503182306 21 101 3.2 8.0 0.00 0.00 0.00 39 1035.6
20260503181805 21 196 8.0 9.7 0.00 0.00 0.00 41 1035.6
20260503181306 20 266 9.7 11.3 0.00 0.00 0.00 38 1035.6
20260503180806 20 315 9.7 16.1 0.00 0.00 0.00 39 1035.6
20260503175805 20 242 8.0 9.7 0.00 0.00 0.00 41 1035.6
20260503175306 20 236 11.3 14.5 0.00 0.00 0.00 41 1035.6
20260503174805 20 213 9.7 14.5 0.00 0.00 0.00 43 1035.6
20260503174305 20 215 3.2 11.3 0.00 0.00 0.00 43 1035.6
20260503173805 19 257 4.8 8.0 0.00 0.00 0.00 43 1035.6
20260503173306 19 208 4.8 16.1 0.00 0.00 0.00 43 1035.6
20260503172806 19 200 4.8 11.3 0.00 0.00 0.00 45 1035.6
20260503172305 19 207 11.3 19.3 0.00 0.00 0.00 46 1035.6
20260503171805 18 214 11.3 11.3 0.00 0.00 0.00 46 1035.6
20260503171306 18 213 11.3 11.3 0.00 0.00 0.00 46 1035.6
20260503170806 18 213 8.0 12.9 0.00 0.00 0.00 48 1035.6
20260503170306 18 188 8.0 11.3 0.00 0.00 0.00 49 1035.6
20260503150805 13 221 16.1 16.1 0.00 0.00 0.00 57 1035.6
20260503150305 13 221 16.1 19.3 0.00 0.00 0.00 57 1035.6
20260503140305 10 222 12.9 14.5 0.00 0.00 0.00 67 1035.6
20260503130306 8 211 8.0 8.0 0.00 0.00 0.00 73 1035.6
20260503110805 8 57 0.0 4.8 0.00 0.00 0.00 71 1035.6
20260503110305 8 55 4.8 8.0 0.00 0.00 0.00 69 1035.6